Flag for Germany Weather for the Past 2 Weeks in Landau in der Pfalz, Rhineland-Palatinate, Germany

Now
46 °F

Sunny.


Feels Like: 46 °F
Forecast: 44 / 60 °F
Wind: 2 mph from North

Location: Mannheim City

Current Time: Apr 30, 2016 at 9:12:29 AM

Latest Report: Apr 30, 2016 at 8:20 AM


Visibility: 10 mi

Pressure: 30.04 "Hg

Humidity: 71%

Dew Point: 37 °F

Location of Landau in der PfalzLocation

Historic Weather in Landau in der Pfalz — Graph

°F

Landau in der Pfalz Temperature Yesterday

Maximum temperature yesterday: 57 °F (at 4:50 PM)
Minimum temperature yesterday: 36 °F (at 5:20 AM)
Average temperature yesterday: 51 °F

High & Low Weather Summary for the Past Weeks

 TemperatureHumidityPressure
High72 °F (Apr 21, 4:50 PM)100% (Apr 16, 7:50 AM)30.42 "Hg (Apr 16, 7:50 AM)
Low36 °F (Apr 25, 6:50 AM)23% (Apr 21, 4:50 PM)29.59 "Hg (Apr 26, 5:50 AM)
Average50 °F62%29.98 "Hg
* Reported Apr 15 7:20 AM — Apr 30 7:50 AM, Landau in der Pfalz, Weather by CustomWeather, © 2016

Note: Actual official high and low records may vary slightly from our data, if they occured in-between our weather recording intervals... More about our weather records

Advertising

Landau in der Pfalz Weather History for the Previous 24 Hours

Scroll right to see more
 ConditionsComfort  
Time TempWeatherWind HumidityBarometerVisibility
7:50 AM
Sat, Apr 30
43 °FSunny.3 mph81%30.04 "Hg10 mi
9:20 PM
Fri, Apr 29
48 °FSunny.2 mph62%30.04 "Hg10 mi
8:50 PM50 °FSunny.No wind54%30.04 "Hg10 mi
8:20 PM55 °FPassing clouds.5 mph41%30.01 "HgN/A
7:50 PM57 °FSunny.6 mph36%30.01 "Hg10 mi
7:20 PM57 °FSunny.3 mph36%30.01 "Hg10 mi
6:50 PM57 °FPassing clouds.5 mph36%30.04 "HgN/A
6:20 PM57 °FPassing clouds.7 mph33%30.04 "HgN/A
5:50 PM57 °FPassing clouds.8 mph33%30.04 "HgN/A
5:20 PM57 °FPassing clouds.8 mph36%30.04 "HgN/A
4:50 PM57 °FPassing clouds.9 mph33%30.04 "HgN/A
4:20 PM55 °FPassing clouds.5 mph38%30.04 "HgN/A
3:50 PM55 °FPassing clouds.6 mph38%30.04 "HgN/A
3:20 PM55 °FPassing clouds.8 mph38%30.07 "HgN/A
2:50 PM55 °FPassing clouds.6 mph38%30.07 "HgN/A
2:20 PM55 °FPassing clouds.7 mph38%30.07 "HgN/A
1:50 PM54 °FPassing clouds.8 mph41%30.07 "HgN/A
1:20 PM54 °FPassing clouds.7 mph41%30.07 "HgN/A
12:50 PM54 °FPassing clouds.8 mph41%30.07 "HgN/A
12:20 PM54 °FPartly sunny.9 mph44%30.07 "HgN/A
11:50 AM54 °FPassing clouds.9 mph47%30.07 "HgN/A
11:20 AM52 °FPassing clouds.8 mph58%30.07 "HgN/A
10:50 AM50 °FPassing clouds.8 mph62%30.07 "HgN/A
9:50 AM46 °FPassing clouds.8 mph66%30.07 "HgN/A
9:20 AM45 °FPassing clouds.8 mph71%30.07 "HgN/A
Weather by CustomWeather, © 2016

See weather overviewHow to use our weather pages